This is the latest recevied weather packets stored in our database for station/object EA1CUE-WX. If no packets are shown the sender has not sent any weather packets the latest 10 day(s).
| Time | Temp. | Humidity | Pressure | Rain* | Wind** | Luminosity | Snow |
|---|---|---|---|---|---|---|---|
| 1777984126 | 12.22° C | 28% | 1013.7 hPa | 0 mm | - | - | - |
| 1777983826 | 12.22° C | 2% | 1013.7 hPa | 0 mm | - | - | - |
| 1777983526 | 11.67° C | 5% | 1013.7 hPa | 0 mm | - | - | - |
| 1777983226 | 11.11° C | 5% | 1013.7 hPa | 0 mm | - | - | - |
| 1777982926 | 11.11° C | 1% | 1013.7 hPa | 0 mm | - | - | - |
| 1777982626 | 10.56° C | 1% | 1013.7 hPa | 0 mm | - | - | - |
| 1777982326 | 10.56° C | 1% | 1013.8 hPa | 0 mm | - | - | - |
| 1777982026 | 10.56° C | 7% | 1013.7 hPa | 0 mm | - | - | - |
| 1777981726 | 10.56° C | 17% | 1013.8 hPa | 0 mm | - | - | - |
| 1777981426 | 11.11° C | 24% | 1013.7 hPa | 0 mm | - | - | - |
| 1777981126 | 11.67° C | 20% | 1013.7 hPa | 0 mm | - | - | - |
| 1777980826 | 11.11° C | 11% | 1013.7 hPa | 0 mm | - | - | - |
| 1777980526 | 11.11° C | 7% | 1013.7 hPa | 0 mm | - | - | - |
| 1777980226 | 10.56° C | 10% | 1013.7 hPa | 0 mm | - | - | - |
| 1777979926 | 10° C | 2% | 1013.8 hPa | 0 mm | - | - | - |
| 1777979626 | 9.44° C | 6% | 1013.7 hPa | 0 mm | - | - | - |
| 1777979326 | 9.44° C | 1% | 1013.8 hPa | 0 mm | - | - | - |
| 1777979026 | 10° C | 1% | 1013.8 hPa | 0 mm | - | - | - |
| 1777978726 | 10° C | 1% | 1013.8 hPa | 0 mm | - | - | - |
| 1777978426 | 9.44° C | 1% | 1013.7 hPa | 0 mm | - | - | - |
| 1777978126 | 9.44° C | 1% | 1013.7 hPa | 0 mm | - | - | - |
| 1777977826 | 8.89° C | 1% | 1013.8 hPa | 0 mm | - | - | - |
| 1777977526 | 8.89° C | 1% | 1013.8 hPa | 0 mm | - | - | - |
| 1777976626 | 9.44° C | 1% | 1013.7 hPa | 0 mm | - | - | - |
| 1777976326 | 9.44° C | 1% | 1013.6 hPa | 0 mm | - | - | - |
* Rain latest hour (hover to see other rain measurements)
** Current wind speed in m/s (hover to see current wind gust speed)